Location: Gwatt
(46.7204°N, 7.6223°E)
Time: 01:49:11
(UTC+00:00)

ERS-1 Rocket - Pass Details

Date: 18 September 2020
Orbit: 753 x 757 km, 98.5° (Epoch: 29 October)

Event Time Altitude Azimuth Distance (km) Brightness Sun altitude
Exits shadow 20:57:22 37° 356° (N) 1,166 4.2 -32.2°
Drops below altitude 10° 21:00:24 10° 349° (N) 2,295 6.1 -32.6°
Sets 21:02:43 0° 348° (NNW) 3,225 7.0 -32.8°
